QPF
0.04 0.05 0.06 0.06 0.05 0.04 0.03 0.03 0.04 0.06 0.06 0.07 0.06 0.05 0.05 0.05 0.06 0.07 0.06 0.06 0.07 0.07 0.07 0.07 0.07 0.07 0.07 0.07 0.06 0.06 0.06 0.05 0.04 0.03 0.03 0.03 0.03 0.03 0.04 0.03 0.03 0.03 0.03
0.03 0.02 0.03 0.04 0.05 0.04 0.03 0.04 0.03 0.04 0.05 0.05 0.04 0.04 0.04 0.06 0.07 0.08 0.06 0.05 0.05 0.05 0.04 0.04 0.04 0.05 0.06 0.06 0.06 0.06 0.06 0.06 0.05 0.05 0.04 0.03 0.03 0.03 0.04 0.04 0.03 0.03 0.03
0.02 0.02 0.02 0.03 0.03 0.03 0.03 0.04 0.04 0.05 0.05 0.04 0.03 0.02 0.03 0.05 0.06 0.07 0.08 0.06 0.04 0.04 0.03 0.02 0.03 0.03 0.04 0.04 0.05 0.05 0.05 0.05 0.05 0.05 0.04 0.03 0.03 0.03 0.04 0.05 0.04 0.05 0.03
0.01 0.02 0.02 0.02 0.02 0.02 0.03 0.05 0.06 0.05 0.05 0.04 0.03 0.02 0.03 0.05 0.05 0.04 0.04 0.05 0.04 0.04 0.03 0.03 0.03 0.04 0.04 0.03 0.04 0.05 0.04 0.03 0.03 0.03 0.02 0.04 0.03 0.03 0.04 0.05 0.05 0.04 0.05
0.01 0.01 0.02 0.02 0.02 0.03 0.04 0.05 0.05 0.05 0.05 0.04 0.03 0.03 0.02 0.04 0.04 0.04 0.03 0.03 0.04 0.04 0.04 0.03 0.03 0.04 0.05 0.04 0.04 0.05 0.04 0.03 0.03 0.02 0.02 0.04 0.04 0.03 0.04 0.05 0.06 0.06 0.06
0.01 0.01 0.02 0.02 0.04 0.05 0.04 0.05 0.04 0.03 0.02 0.02 0.02 0.02 0.02 0.02 0.03 0.03 0.03 0.02 0.02 0.03 0.03 0.03 0.03 0.03 0.04 0.03 0.03 0.04 0.04 0.03 0.03 0.03 0.03 0.04 0.05 0.05 0.05 0.05 0.05 0.06 0.06
0.01 0.01 0.02 0.04 0.04 0.03 0.03 0.03 0.02 0.02 0.02 0.01 0.01 0.01 0.01 0.01 0.01 0.01 0.02 0.02 0.02 0.02 0.02 0.02 0.03 0.03 0.03 0.03 0.04 0.04 0.03 0.02 0.02 0.03 0.04 0.05 0.04 0.05 0.05 0.04 0.04 0.05 0.05
0.03 0.04 0.06 0.04 0.02 0.02 0.02 0.01 0.01 0.01 0.01 0.01 0.01 0.01 0.01 0.01 0.00 0.00 0.01 0.02 0.02 0.02 0.01 0.02 0.02 0.03 0.03 0.03 0.04 0.04 0.03 0.03 0.03 0.03 0.04 0.04 0.02 0.03 0.03 0.03 0.03 0.04 0.04
0.04 0.04 0.04 0.02 0.01 0.01 0.01 0.01 0.01 0.01 0.01 0.00 0.00 0.00 0.01 0.01 0.00 0.00 0.00 0.01 0.02 0.02 0.01 0.02 0.02 0.04 0.04 0.04 0.05 0.05 0.05 0.04 0.02 0.02 0.02 0.02 0.01 0.01 0.02 0.02 0.03 0.04 0.04
0.02 0.02 0.01 0.00 0.00 0.01 0.01 0.01 0.01 0.01 0.01 0.00 0.00 0.00 0.01 0.01 0.00 0.00 0.00 0.01 0.01 0.01 0.02 0.04 0.04 0.04 0.04 0.06 0.07 0.05 0.04 0.03 0.02 0.01 0.01 0.01 0.01 0.01 0.01 0.03 0.04 0.04 0.03
0.00 0.00 0.00 0.00 0.00 0.01 0.01 0.01 0.01 0.01 0.01 0.01 0.01 0.01 0.02 0.02 0.01 0.01 0.02 0.02 0.03 0.05 0.07 0.06 0.05 0.05 0.05 0.05 0.03 0.02 0.02 0.02 0.01 0.01 0.01 0.01 0.01 0.01 0.02 0.02 0.03 0.04 0.04
0.00 0.01 0.00 0.00 0.00 0.00 0.01 0.01 0.01 0.01 0.01 0.01 0.01 0.01 0.02 0.02 0.02 0.03 0.04 0.04 0.05 0.05 0.05 0.04 0.04 0.04 0.03 0.03 0.02 0.02 0.01 0.01 0.01 0.01 0.01 0.01 0.01 0.01 0.01 0.01 0.02 0.02 0.03
0.00 0.01 0.00 0.00 0.00 0.00 0.00 0.00 0.00 0.01 0.01 0.01 0.01 0.01 0.01 0.01 0.01 0.01 0.01 0.02 0.02 0.02 0.02 0.01 0.01 0.02 0.03 0.03 0.04 0.03 0.03 0.02 0.02 0.02 0.02 0.02 0.01 0.01 0.01 0.01 0.02 0.02 0.02
0.00 0.00 0.00 0.00 0.00 0.00 0.00 0.00 0.00 0.00 0.00 0.00 0.00 0.00 0.00 0.00 0.00 0.00 0.01 0.02 0.02 0.01 0.01 0.01 0.01 0.01 0.02 0.02 0.04 0.04 0.04 0.04 0.04 0.04 0.04 0.04 0.03 0.03 0.03 0.03 0.02 0.02 0.01
0.00 0.00 0.00 0.00 0.00 0.00 0.00 0.00 0.00 0.00 0.00 0.00 0.00 0.00 0.00 0.00 0.00 0.01 0.02 0.01 0.01 0.01 0.01 0.01 0.01 0.01 0.01 0.02 0.02 0.03 0.04 0.03 0.03 0.02 0.03 0.03 0.02 0.03 0.03 0.03 0.03 0.03 0.02
0.00 0.00 0.00 0.00 0.00 0.00 0.00 0.00 0.00 0.00 0.00 0.00 0.00 0.00 0.00 0.00 0.00 0.01 0.01 0.01 0.01 0.01 0.01 0.01 0.01 0.01 0.01 0.02 0.02 0.03 0.03 0.04 0.03 0.02 0.02 0.02 0.02 0.02 0.02 0.02 0.02 0.02 0.02
0.01 0.01 0.00 0.00 0.00 0.00 0.01 0.01 0.00 0.00 0.01 0.01 0.00 0.00 0.00 0.00 0.01 0.01 0.01 0.01 0.01 0.01 0.01 0.01 0.01 0.01 0.01 0.01 0.01 0.02 0.02 0.02 0.03 0.03 0.03 0.02 0.02 0.01 0.01 0.01 0.01 0.01 0.01
0.01 0.01 0.01 0.01 0.01 0.01 0.01 0.01 0.01 0.01 0.01 0.01 0.00 0.00 0.01 0.01 0.01 0.01 0.01 0.00 0.00 0.00 0.01 0.01 0.01 0.01 0.01 0.01 0.01 0.01 0.01 0.02 0.03 0.03 0.03 0.03 0.03 0.02 0.01 0.01 0.01 0.01 0.01
0.00 0.01 0.00 0.00 0.01 0.01 0.01 0.01 0.00 0.00 0.01 0.00 0.00 0.00 0.00 0.00 0.00 0.00 0.00 0.00 0.00 0.01 0.01 0.01 0.00 0.00 0.00 0.00 0.00 0.01 0.01 0.01 0.02 0.02 0.02 0.02 0.02 0.02 0.02 0.01 0.01 0.01 0.01
0.00 0.00 0.00 0.00 0.00 0.00 0.00 0.00 0.00 0.00 0.00 0.00 0.00 0.01 0.00 0.00 0.00 0.00 0.00 0.00 0.01 0.01 0.01 0.01 0.01 0.00 0.00 0.00 0.00 0.00 0.01 0.01 0.01 0.01 0.01 0.01 0.01 0.01 0.02 0.01 0.01 0.01 0.01
0.00 0.00 0.00 0.00 0.00 0.00 0.00 0.00 0.00 0.00 0.00 0.00 0.00 0.01 0.00 0.00 0.00 0.01 0.01 0.00 0.01 0.01 0.01 0.01 0.01 0.01 0.01 0.00 0.00 0.00 0.00 0.01 0.01 0.01 0.01 0.01 0.01 0.01 0.02 0.01 0.01 0.01 0.01
0.00 0.00 0.00 0.00 0.00 0.00 0.00 0.00 0.00 0.00 0.00 0.00 0.00 0.01 0.01 0.00 0.00 0.01 0.01 0.01 0.01 0.01 0.01 0.01 0.01 0.00 0.00 0.01 0.00 0.00 0.00 0.00 0.00 0.00 0.01 0.01 0.01 0.01 0.01 0.01 0.01 0.01 0.01
0.01 0.01 0.01 0.01 0.00 0.00 0.00 0.00 0.00 0.00 0.00 0.00 0.00 0.00 0.01 0.01 0.01 0.01 0.01 0.01 0.01 0.01 0.01 0.01 0.01 0.01 0.01 0.01 0.01 0.01 0.01 0.01 0.01 0.01 0.01 0.01 0.01 0.01 0.01 0.01 0.02 0.02 0.01
0.00 0.01 0.01 0.01 0.01 0.00 0.00 0.00 0.00 0.00 0.00 0.00 0.01 0.01 0.01 0.01 0.01 0.02 0.02 0.01 0.01 0.01 0.01 0.02 0.03 0.02 0.02 0.02 0.02 0.02 0.01 0.01 0.01 0.02 0.01 0.01 0.01 0.01 0.01 0.01 0.01 0.01 0.02
0.00 0.00 0.00 0.00 0.00 0.00 0.00 0.00 0.00 0.00 0.01 0.01 0.01 0.01 0.00 0.01 0.01 0.02 0.03 0.03 0.03 0.03 0.03 0.04 0.05 0.05 0.05 0.04 0.04 0.03 0.03 0.03 0.03 0.02 0.02 0.01 0.01 0.01 0.01 0.01 0.01 0.01 0.01
0.01 0.01 0.01 0.01 0.01 0.01 0.01 0.01 0.01 0.01 0.02 0.01 0.02 0.01 0.01 0.02 0.03 0.03 0.03 0.03 0.03 0.04 0.05 0.06 0.06 0.05 0.04 0.04 0.03 0.02 0.02 0.02 0.02 0.02 0.02 0.01 0.01 0.01 0.01 0.01 0.01 0.01 0.02
MSLP
1010.09 1010.21 1010.24 1010.19 1010.07 1009.88 1009.65 1009.37 1009.07 1008.76 1008.46 1008.17 1007.91 1007.67 1007.46 1007.26 1007.06 1006.86 1006.65 1006.42 1006.18 1005.94 1005.72 1005.54 1005.42 1005.37 1005.40 1005.51 1005.68 1005.90 1006.14 1006.37 1006.58 1006.75 1006.89 1007.00 1007.09 1007.19 1007.32 1007.49 1007.72 1008.00 1008.33
1009.73 1009.88 1009.94 1009.92 1009.83 1009.66 1009.44 1009.17 1008.88 1008.59 1008.30 1008.04 1007.80 1007.60 1007.43 1007.27 1007.12 1006.97 1006.80 1006.61 1006.39 1006.17 1005.96 1005.77 1005.63 1005.55 1005.54 1005.61 1005.74 1005.91 1006.12 1006.32 1006.51 1006.68 1006.83 1006.95 1007.08 1007.21 1007.37 1007.57 1007.81 1008.10 1008.42
1009.42 1009.59 1009.68 1009.69 1009.62 1009.48 1009.27 1009.03 1008.75 1008.47 1008.20 1007.95 1007.74 1007.56 1007.42 1007.30 1007.19 1007.08 1006.94 1006.78 1006.60 1006.40 1006.20 1006.02 1005.87 1005.78 1005.74 1005.78 1005.87 1006.00 1006.16 1006.33 1006.49 1006.64 1006.78 1006.91 1007.04 1007.19 1007.37 1007.58 1007.83 1008.11 1008.42
1009.22 1009.40 1009.51 1009.53 1009.48 1009.35 1009.17 1008.93 1008.67 1008.40 1008.14 1007.90 1007.69 1007.53 1007.39 1007.29 1007.20 1007.11 1007.00 1006.87 1006.72 1006.55 1006.38 1006.22 1006.08 1005.99 1005.95 1005.97 1006.04 1006.14 1006.26 1006.39 1006.52 1006.65 1006.76 1006.88 1007.00 1007.15 1007.33 1007.54 1007.78 1008.05 1008.32
1009.16 1009.33 1009.43 1009.45 1009.40 1009.28 1009.11 1008.88 1008.62 1008.35 1008.08 1007.83 1007.61 1007.43 1007.28 1007.17 1007.07 1006.99 1006.90 1006.79 1006.67 1006.54 1006.41 1006.28 1006.18 1006.12 1006.10 1006.13 1006.19 1006.27 1006.38 1006.48 1006.58 1006.67 1006.76 1006.85 1006.96 1007.09 1007.25 1007.44 1007.66 1007.89 1008.11
1009.21 1009.34 1009.41 1009.42 1009.35 1009.23 1009.04 1008.81 1008.54 1008.25 1007.96 1007.67 1007.42 1007.20 1007.03 1006.88 1006.77 1006.68 1006.59 1006.51 1006.42 1006.33 1006.24 1006.17 1006.12 1006.10 1006.12 1006.17 1006.24 1006.34 1006.43 1006.52 1006.60 1006.66 1006.72 1006.79 1006.87 1006.98 1007.11 1007.27 1007.45 1007.64 1007.81
1009.28 1009.35 1009.38 1009.35 1009.26 1009.12 1008.92 1008.67 1008.38 1008.06 1007.73 1007.41 1007.11 1006.84 1006.61 1006.43 1006.29 1006.17 1006.09 1006.01 1005.95 1005.90 1005.86 1005.85 1005.85 1005.89 1005.95 1006.04 1006.15 1006.26 1006.36 1006.45 1006.52 1006.57 1006.61 1006.65 1006.70 1006.78 1006.89 1007.01 1007.15 1007.30 1007.42
1009.25 1009.25 1009.22 1009.16 1009.05 1008.90 1008.68 1008.42 1008.11 1007.76 1007.39 1007.02 1006.67 1006.35 1006.07 1005.85 1005.67 1005.54 1005.45 1005.38 1005.34 1005.32 1005.33 1005.36 1005.42 1005.50 1005.61 1005.73 1005.87 1006.00 1006.12 1006.21 1006.28 1006.33 1006.36 1006.38 1006.42 1006.47 1006.55 1006.65 1006.76 1006.87 1006.95
1008.99 1008.93 1008.87 1008.79 1008.67 1008.51 1008.31 1008.04 1007.72 1007.35 1006.96 1006.55 1006.16 1005.80 1005.49 1005.23 1005.03 1004.88 1004.78 1004.72 1004.69 1004.70 1004.73 1004.78 1004.87 1004.98 1005.11 1005.26 1005.42 1005.57 1005.70 1005.80 1005.88 1005.93 1005.95 1005.97 1006.00 1006.04 1006.10 1006.18 1006.27 1006.36 1006.43
1008.45 1008.36 1008.28 1008.21 1008.11 1007.98 1007.79 1007.55 1007.24 1006.88 1006.48 1006.06 1005.65 1005.27 1004.94 1004.66 1004.45 1004.30 1004.19 1004.13 1004.11 1004.12 1004.15 1004.21 1004.29 1004.40 1004.53 1004.68 1004.84 1004.99 1005.13 1005.24 1005.32 1005.37 1005.40 1005.42 1005.44 1005.48 1005.54 1005.61 1005.70 1005.79 1005.86
1007.63 1007.54 1007.49 1007.45 1007.41 1007.33 1007.19 1006.99 1006.72 1006.39 1006.01 1005.60 1005.20 1004.83 1004.50 1004.23 1004.02 1003.86 1003.76 1003.70 1003.66 1003.65 1003.66 1003.68 1003.73 1003.81 1003.91 1004.03 1004.16 1004.30 1004.43 1004.54 1004.63 1004.69 1004.73 1004.76 1004.79 1004.82 1004.88 1004.96 1005.06 1005.16 1005.25
1006.63 1006.57 1006.57 1006.60 1006.62 1006.62 1006.56 1006.42 1006.20 1005.92 1005.58 1005.21 1004.84 1004.49 1004.19 1003.93 1003.74 1003.59 1003.48 1003.40 1003.34 1003.29 1003.25 1003.22 1003.20 1003.21 1003.25 1003.32 1003.42 1003.53 1003.64 1003.75 1003.85 1003.92 1003.97 1004.01 1004.05 1004.10 1004.17 1004.25 1004.36 1004.48 1004.60
1005.58 1005.58 1005.64 1005.74 1005.85 1005.92 1005.93 1005.87 1005.71 1005.48 1005.19 1004.87 1004.54 1004.23 1003.96 1003.73 1003.55 1003.41 1003.30 1003.20 1003.09 1002.99 1002.87 1002.76 1002.66 1002.59 1002.56 1002.56 1002.61 1002.69 1002.79 1002.90 1003.00 1003.09 1003.16 1003.22 1003.27 1003.33 1003.41 1003.51 1003.63 1003.77 1003.91
1004.64 1004.69 1004.81 1004.98 1005.16 1005.29 1005.36 1005.34 1005.24 1005.05 1004.81 1004.52 1004.24 1003.97 1003.73 1003.53 1003.37 1003.23 1003.10 1002.96 1002.81 1002.64 1002.44 1002.24 1002.06 1001.90 1001.79 1001.73 1001.73 1001.78 1001.87 1001.99 1002.11 1002.22 1002.32 1002.40 1002.48 1002.55 1002.64 1002.75 1002.88 1003.03 1003.20
1003.93 1004.01 1004.17 1004.38 1004.58 1004.74 1004.84 1004.84 1004.75 1004.59 1004.37 1004.11 1003.85 1003.61 1003.40 1003.22 1003.07 1002.93 1002.78 1002.60 1002.39 1002.15 1001.88 1001.59 1001.33 1001.09 1000.92 1000.81 1000.78 1000.82 1000.92 1001.05 1001.20 1001.35 1001.48 1001.60 1001.70 1001.79 1001.89 1002.01 1002.15 1002.31 1002.48
1003.50 1003.58 1003.74 1003.93 1004.12 1004.26 1004.33 1004.32 1004.21 1004.04 1003.82 1003.57 1003.32 1003.10 1002.90 1002.74 1002.58 1002.43 1002.25 1002.04 1001.78 1001.48 1001.14 1000.80 1000.47 1000.18 999.96 999.83 999.79 999.84 999.96 1000.12 1000.31 1000.50 1000.68 1000.83 1000.96 1001.08 1001.19 1001.32 1001.46 1001.63 1001.81
1003.33 1003.37 1003.48 1003.61 1003.73 1003.81 1003.81 1003.74 1003.59 1003.38 1003.13 1002.88 1002.63 1002.42 1002.23 1002.06 1001.91 1001.74 1001.55 1001.31 1001.01 1000.66 1000.28 999.90 999.53 999.22 998.99 998.86 998.84 998.91 999.06 999.26 999.50 999.73 999.96 1000.15 1000.31 1000.45 1000.58 1000.72 1000.86 1001.03 1001.21
1003.30 1003.28 1003.30 1003.34 1003.36 1003.33 1003.24 1003.08 1002.87 1002.61 1002.34 1002.07 1001.83 1001.61 1001.43 1001.28 1001.12 1000.96 1000.75 1000.49 1000.18 999.81 999.42 999.02 998.65 998.34 998.12 998.01 998.01 998.12 998.31 998.55 998.83 999.11 999.37 999.59 999.79 999.95 1000.10 1000.24 1000.39 1000.56 1000.74
1003.31 1003.19 1003.11 1003.03 1002.93 1002.79 1002.60 1002.36 1002.09 1001.79 1001.50 1001.23 1001.00 1000.80 1000.64 1000.50 1000.36 1000.20 1000.00 999.75 999.43 999.07 998.69 998.30 997.95 997.67 997.48 997.40 997.43 997.57 997.79 998.07 998.38 998.68 998.97 999.21 999.42 999.60 999.76 999.91 1000.07 1000.24 1000.42
1003.23 1003.02 1002.84 1002.65 1002.44 1002.20 1001.92 1001.63 1001.31 1001.00 1000.71 1000.46 1000.26 1000.10 999.97 999.87 999.76 999.62 999.45 999.21 998.92 998.59 998.23 997.88 997.56 997.32 997.16 997.12 997.18 997.35 997.59 997.88 998.19 998.50 998.79 999.04 999.25 999.43 999.60 999.75 999.91 1000.07 1000.25
1003.00 1002.72 1002.45 1002.18 1001.89 1001.58 1001.26 1000.93 1000.62 1000.32 1000.07 999.87 999.72 999.62 999.55 999.49 999.43 999.33 999.19 998.99 998.73 998.44 998.12 997.82 997.55 997.35 997.23 997.22 997.30 997.47 997.71 997.99 998.29 998.58 998.84 999.07 999.27 999.44 999.59 999.73 999.88 1000.04 1000.20
1002.64 1002.31 1001.99 1001.66 1001.33 1000.99 1000.67 1000.35 1000.07 999.84 999.65 999.52 999.45 999.42 999.42 999.42 999.40 999.35 999.24 999.09 998.87 998.63 998.36 998.11 997.89 997.73 997.65 997.66 997.75 997.92 998.13 998.38 998.64 998.88 999.10 999.28 999.44 999.58 999.70 999.82 999.94 1000.08 1000.22
1002.22 1001.88 1001.53 1001.19 1000.85 1000.53 1000.23 999.97 999.75 999.59 999.49 999.45 999.46 999.51 999.57 999.62 999.65 999.64 999.57 999.45 999.28 999.07 998.86 998.65 998.48 998.37 998.32 998.34 998.44 998.58 998.76 998.96 999.16 999.34 999.49 999.61 999.71 999.79 999.87 999.95 1000.04 1000.14 1000.24
1001.87 1001.53 1001.19 1000.85 1000.54 1000.25 1000.01 999.81 999.67 999.60 999.58 999.62 999.70 999.81 999.92 1000.01 1000.06 1000.07 1000.03 999.93 999.79 999.63 999.46 999.30 999.17 999.10 999.08 999.11 999.20 999.33 999.47 999.61 999.74 999.85 999.92 999.97 1000.00 1000.01 1000.03 1000.05 1000.09 1000.14 1000.18
1001.70 1001.37 1001.05 1000.74 1000.46 1000.22 1000.03 999.90 999.83 999.82 999.87 999.97 1000.10 1000.23 1000.36 1000.46 1000.52 1000.53 1000.49 1000.40 1000.28 1000.14 1000.00 999.89 999.80 999.76 999.77 999.82 999.91 1000.01 1000.12 1000.21 1000.27 1000.30 1000.30 1000.27 1000.22 1000.16 1000.11 1000.07 1000.04 1000.03 1000.01
1001.81 1001.50 1001.20 1000.91 1000.66 1000.45 1000.30 1000.22 1000.19 1000.22 1000.31 1000.42 1000.56 1000.69 1000.81 1000.89 1000.92 1000.91 1000.85 1000.75 1000.63 1000.51 1000.40 1000.31 1000.26 1000.26 1000.29 1000.36 1000.45 1000.54 1000.61 1000.66 1000.67 1000.63 1000.56 1000.45 1000.32 1000.19 1000.06 999.95 999.86 999.78 999.71
Thickness
5673 5669 5665 5662 5659 5656 5653 5650 5647 5645 5643 5641 5639 5637 5634 5631 5628 5625 5623 5621 5619 5617 5616 5615 5614 5614 5615 5615 5616 5616 5617 5618 5617 5620 5621 5621 5620 5621 5623 5623 5625 5625 5625
5671 5667 5664 5660 5657 5654 5652 5649 5646 5643 5641 5639 5636 5634 5631 5629 5626 5623 5621 5619 5617 5615 5613 5612 5612 5612 5610 5610 5610 5611 5612 5613 5613 5612 5614 5615 5614 5616 5616 5617 5620 5621 5620
5671 5666 5662 5659 5656 5653 5650 5647 5644 5642 5639 5637 5634 5631 5629 5626 5623 5621 5619 5617 5615 5613 5612 5611 5610 5608 5606 5606 5606 5608 5609 5610 5608 5608 5609 5610 5611 5612 5612 5613 5614 5614 5615
5669 5665 5661 5657 5654 5651 5648 5646 5643 5640 5637 5634 5632 5629 5627 5624 5621 5619 5617 5615 5613 5611 5610 5608 5607 5606 5604 5603 5604 5603 5604 5604 5604 5605 5606 5607 5607 5608 5607 5608 5608 5608 5609
5668 5664 5660 5657 5654 5650 5647 5644 5641 5639 5636 5633 5630 5627 5625 5622 5618 5615 5614 5613 5610 5609 5608 5606 5604 5601 5599 5599 5601 5601 5601 5601 5601 5601 5602 5603 5603 5602 5603 5603 5603 5603 5603
5667 5664 5661 5657 5653 5649 5646 5643 5640 5637 5635 5632 5629 5626 5623 5620 5613 5609 5607 5609 5608 5607 5605 5604 5603 5600 5597 5595 5595 5595 5595 5597 5598 5598 5599 5599 5598 5598 5598 5598 5597 5597 5597
5665 5662 5659 5656 5652 5649 5646 5643 5639 5636 5633 5630 5628 5625 5621 5616 5610 5606 5604 5605 5606 5604 5602 5601 5602 5601 5598 5597 5595 5593 5592 5591 5591 5593 5594 5595 5595 5595 5593 5593 5591 5591 5591
5663 5660 5658 5655 5651 5648 5645 5641 5638 5635 5632 5629 5627 5624 5620 5615 5608 5604 5602 5604 5604 5602 5601 5599 5597 5596 5597 5595 5596 5595 5594 5593 5591 5590 5591 5591 5591 5590 5589 5589 5588 5588 5589
5662 5659 5656 5654 5651 5647 5644 5640 5637 5634 5631 5629 5627 5624 5620 5615 5608 5604 5600 5605 5604 5602 5600 5599 5596 5595 5592 5591 5593 5593 5593 5592 5590 5588 5587 5586 5585 5584 5584 5586 5586 5586 5586
5661 5658 5655 5653 5649 5646 5643 5640 5637 5634 5631 5629 5626 5623 5619 5615 5608 5603 5599 5605 5604 5603 5601 5599 5593 5592 5590 5589 5591 5592 5592 5592 5591 5590 5587 5585 5585 5584 5581 5582 5583 5583 5583
5661 5658 5654 5651 5648 5645 5642 5639 5636 5634 5631 5628 5626 5623 5619 5614 5609 5603 5599 5602 5602 5602 5602 5600 5596 5589 5588 5587 5588 5590 5589 5588 5589 5590 5589 5588 5586 5585 5583 5581 5580 5579 5578
5659 5656 5653 5649 5648 5646 5641 5638 5635 5632 5631 5628 5625 5623 5620 5615 5609 5604 5599 5596 5595 5597 5598 5597 5593 5587 5585 5584 5586 5585 5585 5586 5589 5590 5589 5587 5586 5584 5582 5579 5576 5574 5572
5657 5654 5651 5648 5646 5643 5640 5637 5635 5632 5631 5629 5627 5623 5620 5616 5611 5604 5600 5597 5594 5594 5595 5590 5588 5586 5585 5586 5584 5584 5585 5587 5587 5587 5586 5585 5583 5581 5578 5576 5573 5571 5569
5654 5652 5650 5647 5644 5641 5639 5638 5635 5633 5630 5628 5625 5622 5620 5616 5612 5607 5604 5602 5597 5596 5596 5592 5589 5587 5587 5586 5587 5587 5587 5586 5585 5584 5583 5582 5581 5579 5577 5575 5572 5570 5567
5651 5650 5649 5647 5644 5639 5637 5634 5633 5629 5626 5622 5622 5620 5616 5613 5605 5598 5597 5599 5598 5596 5594 5596 5595 5594 5592 5592 5591 5590 5588 5587 5584 5583 5582 5581 5580 5578 5576 5573 5569 5568 5565
5649 5647 5648 5646 5643 5641 5638 5634 5628 5625 5620 5616 5612 5610 5610 5604 5599 5596 5593 5591 5590 5588 5591 5594 5593 5592 5591 5590 5590 5589 5587 5586 5584 5583 5581 5579 5578 5576 5574 5571 5568 5565 5563
5646 5645 5645 5644 5642 5640 5638 5635 5632 5625 5618 5614 5611 5607 5603 5601 5598 5595 5592 5590 5588 5587 5591 5593 5592 5590 5589 5589 5588 5586 5585 5584 5582 5580 5579 5577 5576 5574 5572 5569 5566 5562 5559
5644 5642 5641 5641 5640 5638 5636 5634 5632 5629 5625 5621 5613 5606 5603 5600 5597 5595 5592 5591 5594 5591 5592 5591 5590 5589 5587 5586 5585 5583 5582 5581 5580 5578 5576 5574 5572 5570 5568 5566 5562 5558 5555
5641 5641 5639 5639 5638 5636 5634 5633 5631 5627 5625 5622 5618 5612 5604 5601 5597 5595 5593 5596 5598 5596 5593 5590 5589 5587 5585 5584 5582 5581 5579 5578 5576 5575 5573 5571 5569 5567 5564 5562 5559 5552 5550
5636 5633 5632 5635 5635 5634 5632 5630 5628 5625 5623 5620 5617 5615 5610 5606 5605 5602 5599 5599 5597 5595 5592 5589 5587 5585 5583 5583 5581 5579 5577 5575 5574 5572 5571 5569 5567 5565 5562 5559 5557 5554 5550
5634 5633 5626 5630 5632 5631 5629 5627 5624 5622 5620 5618 5616 5612 5604 5607 5606 5603 5601 5599 5596 5594 5591 5588 5586 5584 5582 5580 5579 5577 5575 5574 5572 5570 5569 5567 5565 5563 5561 5559 5556 5552 5548
5631 5630 5629 5629 5628 5626 5624 5623 5621 5619 5617 5615 5613 5610 5602 5604 5604 5602 5599 5597 5594 5591 5588 5586 5585 5583 5580 5578 5576 5575 5573 5572 5570 5568 5567 5565 5563 5561 5559 5557 5553 5550 5545
5626 5626 5625 5625 5623 5619 5618 5619 5618 5616 5614 5613 5612 5609 5605 5603 5601 5599 5596 5593 5591 5588 5585 5582 5581 5580 5577 5574 5572 5571 5571 5569 5567 5565 5563 5563 5562 5560 5558 5554 5551 5547 5543
5622 5622 5622 5621 5619 5618 5617 5615 5614 5613 5612 5610 5608 5606 5604 5601 5599 5596 5593 5590 5587 5584 5582 5579 5577 5575 5572 5571 5570 5568 5565 5563 5562 5562 5560 5560 5559 5558 5556 5552 5549 5545 5541
5618 5617 5617 5616 5615 5613 5613 5612 5611 5609 5608 5607 5605 5604 5602 5600 5597 5594 5590 5587 5584 5582 5579 5577 5574 5572 5569 5568 5565 5563 5558 5556 5555 5556 5557 5557 5555 5553 5552 5550 5546 5543 5539
5612 5612 5611 5611 5610 5609 5608 5607 5607 5606 5605 5604 5603 5601 5599 5596 5594 5591 5588 5584 5583 5581 5578 5575 5572 5569 5567 5565 5562 5558 5555 5553 5552 5551 5552 5554 5553 5551 5549 5547 5543 5541 5537